This is the latest recevied weather packets stored in our database for station/object KC1HBM. If no packets are shown the sender has not sent any weather packets the latest 10 day(s).
| Time | Temp. | Humidity | Pressure | Rain* | Wind** | Luminosity | Snow |
|---|---|---|---|---|---|---|---|
| 1777832574 | 11.11° C | 63% | 1002.1 hPa | 0 mm | - | 112 W/m² | - |
| 1777832270 | 11.11° C | 61% | 1002 hPa | 0 mm | - | 152 W/m² | - |
| 1777831967 | 11.11° C | 62% | 1002.1 hPa | 0 mm | - | 180 W/m² | - |
| 1777831663 | 10.56° C | 65% | 1002.1 hPa | 0 mm | - | 183 W/m² | - |
| 1777831362 | 10° C | 64% | 1002 hPa | 0 mm | - | 160 W/m² | - |
| 1777831058 | 10° C | 65% | 1002.5 hPa | 0 mm | - | 120 W/m² | - |
| 1777830756 | 10° C | 64% | 1002.2 hPa | 0 mm | - | 86 W/m² | - |
| 1777830452 | 10.56° C | 65% | 1002.2 hPa | 0 mm | - | 98 W/m² | - |
| 1777830151 | 10° C | 68% | 1002.4 hPa | 0 mm | - | 103 W/m² | - |
| 1777829851 | 10° C | 66% | 1002.2 hPa | 0 mm | - | 106 W/m² | - |
| 1777829547 | 10° C | 67% | 1002.2 hPa | 0 mm | - | 119 W/m² | - |
| 1777829244 | 10° C | 66% | 1002.2 hPa | 0 mm | - | 75 W/m² | - |
| 1777828941 | 10° C | 68% | 1002.1 hPa | 0 mm | - | 104 W/m² | - |
| 1777828637 | 10° C | 68% | 1002.2 hPa | 0 mm | - | 121 W/m² | - |
| 1777828335 | 10° C | 67% | 1002.2 hPa | 0 mm | - | 139 W/m² | - |
| 1777828032 | 9.44° C | 69% | 1002.3 hPa | 0 mm | - | 113 W/m² | - |
| 1777827729 | 9.44° C | 68% | 1002.1 hPa | 0 mm | - | 132 W/m² | - |
| 1777827426 | 9.44° C | 72% | 1002.3 hPa | 0 mm | - | 112 W/m² | - |
| 1777827123 | 8.89° C | 71% | 1002.1 hPa | 0 mm | - | 81 W/m² | - |
| 1777826819 | 8.89° C | 71% | 1002.4 hPa | 0 mm | - | 72 W/m² | - |
| 1777826516 | 8.89° C | 73% | 1002.2 hPa | 0 mm | - | 69 W/m² | - |
| 1777826212 | 8.89° C | 77% | 1002.3 hPa | 0 mm | - | 55 W/m² | - |
| 1777825910 | 8.89° C | 76% | 1002.5 hPa | 0 mm | - | 46 W/m² | - |
| 1777825607 | 8.89° C | 77% | 1002.4 hPa | 0 mm | - | 50 W/m² | - |
| 1777825305 | 8.33° C | 78% | 1002.4 hPa | 0 mm | - | 44 W/m² | - |
* Rain latest hour (hover to see other rain measurements)
** Current wind speed in m/s (hover to see current wind gust speed)